Regional Weather Roundup
Issued by NWS

Home | Current Version | Previous Version | Graphics & Text | Print | Product List | Glossary On
Versions: 1 2 3 4 5 6 7 8 9 10 11 12 13 14 15 16 17 18 19 20 21 22 23 24 25 26 27 28 29 30 31 32 33 34 35 36 37 38 39 40 41 42 43 44 45 46 47 48 49 50
000
ASUS45 KSLC 230510
RWRUT

UTAH REGIONAL WEATHER ROUNDUP
NATIONAL WEATHER SERVICE SALT LAKE CITY UT
1100 PM MDT MON SEP 22 2014

UTZ001>011-023>025-230600-

NORTHERN UTAH

CITY           SKY/WX    TMP DP  RH WIND       PRES   REMARKS
HILL AFB       CLOUDY    65  50  58 E7        30.14R
LOGAN          CLOUDY    62  54  74 CALM      30.13R
OGDEN          CLOUDY    65  53  65 S6        30.12R
PROVO AIRPORT  PTCLDY    61  54  77 CALM      30.15R
SALT LAKE CITY MOCLDY    67  52  58 S6        30.10S
VERNAL         CLOUDY    62  53  72 W5        30.17S
WENDOVER       CLEAR     64  52  63 W6        30.10F
HEBER CITY     CLOUDY    57  50  77 CALM      30.20S
WEST JORDAN    MOCLDY    64  54  68 CALM      30.13S

$$

UTZ012>022-026-027-230600-

SOUTHERN UTAH

CITY           SKY/WX    TMP DP  RH WIND       PRES   REMARKS
BRYCE CANYON   CLEAR     46  39  76 W6        30.35S
CEDAR CITY     CLEAR     59  38  45 S6        30.21R
MILFORD        PTCLDY    62  48  60 SW7       30.16R
MOAB/CYNLANDS  CLOUDY    67  56  67 CALM      30.11S
PRICE          PTCLDY    60  54  80 N8        30.22R
ST GEORGE      MOCLDY    73  46  38 CALM      30.05R
KANAB            N/A     64  43  45 N7        30.21R

$$

REGIONAL REPORTS     COLORADO/ARIZONA

CITY           SKY/WX    TMP DP  RH WIND       PRES   REMARKS
CRAIG, CO      CLOUDY    57  47  69 CALM      30.24S
GRAND JUNCTION MOCLDY    63  54  72 E3        30.15S
RIFLE          CLOUDY    59  51  75 E5        30.22R
MONTROSE       PTCLDY    58  53  84 SE8       30.25R
CORTEZ         CLEAR     55  49  80 E5        30.25R
PAGE, AZ       CLEAR     74  42  31 SW5       30.11R
GRAND CANYON   CLEAR     50  42  74 CALM      30.30R
KINGMAN        CLEAR     66  37  34 SE10      30.08S
FLAGSTAFF      CLEAR     53  47  79 CALM      30.34R

$$

REGIONAL REPORTS    NEVADA/IDAHO/WYOMING

CITY           SKY/WX    TMP DP  RH WIND       PRES   REMARKS
LAS VEGAS, NV  CLEAR     86  36  16 SW7       29.93R
ELY            CLEAR     53  45  74 S7        30.24R
ELKO           CLEAR     60  43  53 NE5       30.14R
POCATELLO, ID  CLEAR     57  53  86 CALM      30.12S
BURLEY         CLEAR     57  50  77 CALM      30.09R
EVANSTON, WY   CLOUDY    56  43  61 SE3       30.27S
ROCK SPRINGS   PTCLDY    51  43  74 W6        30.25S

$$


USA.gov is the U.S. government's official web portal to all federal, state and local government web resources and services.